SCP
0 -0 -0 -0 -0 -0 -0 -0 -0 -0 -0 0 0 0 0 0 0 0 0 0 0 0 0 0 0 0 0 0 0 0 0 0
0 -0 -0 -0 -0 -0 -0 -0 -0 -0 -0 0 0 0 0 0 0 0 0 0 0 0 0 0 0 0 0 0 0 0 0 0
-0 -0 -0 -0 -0 -0 -0 -0 -0 -0 -0 -0 0 0 0 0 0 0 0 0 0 0 0 0 0 0 0 0 0 0 0 0
-0 -0 -0 -0 -0 -0 -0 -0 -0 -0 -0 -0 0 0 0 0 0 0 0 0 0 0 0 0 0 0 0 0 0 0 0 0
-0 -0 -0 -0 -0 -0 -0 -0 -0 -0 -0 -0 -0 -0 -0 0 0 0 0 0 0 0 0 0 0 0 0 0 0 0 0 0
-0 -0 -0 -0 -0 -0 -0 -0 -0 -0 -0 -0 -0 0 0 0 0 0 0 0 0 0 0 0 0 0 0 0 0 0 0 0
-0 -0 -0 -0 -0 -0 -0 -0 -0 -0 -0 -0 -0 -0 0 0 0 0 0 0 0 0 0 0 0 0 0 0 0 0 0 0
-0 -0 -0 -0 -0 -0 -0 -0 -0 -0 -0 -0 -0 -0 -0 -0 0 0 0 0 0 0 0 0 0 0 0 0 0 0 0 0
-0 -0 -0 -0 -0 -0 -0 -0 -0 -0 -0 -0 -0 -0 0 -0 -0 0 0 0 0 0 0 0 0 0 0 0 0 0 0 0
0 0 0 0 -0 -0 -0 -0 -0 -0 -0 -0 -0 -0 -0 -0 -0 0 0 0 0 0 0 0 0 0 0 0 0 0 0 0
0 0 0 0 0 0 -0 -0 -0 -0 -0 -0 0 0 0 0 0 0 0 0 0 0 0 0 0 0 0 0 0 0 0 0
0 0 0 0 0 0 0 0 0 0 0 0 0 0 0 0 0 0 0 0 0 0 0 0 0 0 0 0 0 0 0 0
0 0 0 0 0 0 0 0 0 0 0 0 0 0 0 0 0 0 0 0 0 0 0 0 0 0 0 0 0 0 0 0
0 0 0 0 0 0 0 0 0 0 0 0 0 0 0 0 0 0 0 0 0 0 0 0 0 0 0 0 0 0 0 0
0 0 0 0 0 0 0 0 0 0 0 0 0 0 0 0 0 0 0 0 0 0 0 0 0 0 0 0 0 0 0 0
0 0 0 0 0 0 0 0 0 0 0 0 0 0 0 0 0 0 0 0 0 0 0 0 0 0 0 0 0 0 0 0
0 0 0 0 0 0 0 0 0 0 0 0 0 0 0 0 0 0 0 0 0 0 0 0 0 0 0 0 0 0 0 0
0 0 0 0 0 0 0 0 0 0 0 0 0 0 0 0 0 0 0 0 0 0 0 0 0 0 0 0 0 0 0 0
0 0 0 0 0 0 0 0 0 0 0 0 0 0 0 0 0 0 0 0 0 0 0 0 0 0 0 0 0 0 0 0
Wind_Speed_500mb
39 43 43 41 40 39 39 41 46 50 44 36 32 34 33 31 29 27 32 30 26 20 14 10 7 4 2 0 4 7 7 7
41 43 45 44 43 43 43 44 49 52 44 40 37 36 35 33 31 32 33 30 27 23 18 13 11 7 6 4 5 7 11 10
46 46 49 48 47 48 47 45 50 53 44 41 36 32 34 33 32 36 36 32 28 26 21 16 14 11 7 6 6 4 9 12
52 52 52 51 52 53 53 50 49 53 48 43 37 35 29 34 35 35 39 36 32 31 26 21 17 14 11 9 7 5 4 14
50 55 54 55 56 54 55 54 53 52 54 49 48 44 42 38 36 34 34 39 38 35 31 27 21 19 16 12 9 7 4 6
55 57 57 55 53 54 57 58 58 57 58 54 52 48 42 36 36 36 38 39 41 40 37 32 28 23 21 18 13 10 7 7
50 49 51 53 53 53 56 61 63 63 63 61 58 54 47 45 41 41 38 36 39 44 42 39 33 31 26 21 16 14 10 12
51 54 56 55 58 55 56 61 66 67 70 66 65 58 54 51 46 45 42 41 41 46 48 45 40 35 30 25 22 19 15 14
49 53 54 55 56 56 56 61 63 66 71 72 65 60 53 53 52 45 45 43 42 43 46 47 44 39 34 30 26 24 21 18
45 47 49 51 54 57 56 60 60 63 69 72 70 66 61 55 52 52 46 45 41 46 44 48 44 42 37 31 32 29 27 22
39 41 43 45 47 49 54 56 59 60 62 68 69 69 65 57 54 55 53 49 48 50 47 48 45 42 35 36 39 35 30 25
37 36 37 38 37 42 48 56 54 54 59 62 65 65 67 64 58 60 60 56 57 56 52 50 49 47 45 37 40 36 34 29
27 28 31 32 34 38 45 50 55 55 56 59 64 65 64 67 66 64 62 63 65 62 58 58 56 54 49 42 43 41 38 34
17 21 26 30 33 36 40 44 49 51 52 55 61 65 68 70 71 70 66 66 68 68 68 68 64 62 53 52 47 48 43 40
15 15 23 27 31 35 36 38 41 46 52 55 60 65 68 69 72 74 70 68 72 75 75 72 72 69 60 58 58 56 51 43
16 14 14 22 28 32 35 35 35 40 46 52 57 59 64 64 66 71 72 73 73 76 78 76 77 77 68 64 63 62 57 50
12 13 15 14 23 30 34 36 38 39 43 47 49 53 57 63 64 65 67 73 73 75 78 81 83 81 72 65 64 64 63 55
11 11 12 14 15 22 32 35 37 39 41 42 45 47 50 54 56 59 63 68 73 77 74 80 87 82 74 68 65 71 65 60
8 6 6 8 11 15 21 27 32 35 35 36 39 41 44 46 51 56 59 62 71 73 77 81 84 80 74 77 69 70 69 62
Wind_Direction_500mb
182 182 183 182 186 189 191 187 188 186 186 184 186 192 196 197 195 191 196 197 199 202 200 213 228 262 248 32 25 19 40 69
185 184 185 185 190 187 193 191 192 190 189 189 193 195 196 199 200 199 203 206 212 212 205 219 224 233 240 313 344 1 8 15
186 187 189 190 192 193 197 197 197 194 192 194 196 198 204 200 198 205 208 213 218 214 214 215 217 239 242 287 304 337 347 354
190 189 191 193 197 197 199 199 201 197 192 193 194 195 196 199 202 205 210 213 214 214 221 220 226 228 234 258 284 313 280 340
195 194 194 197 200 200 201 200 203 205 199 197 200 200 203 207 207 204 207 213 215 216 223 227 230 224 230 239 253 260 296 292
195 197 200 200 198 201 202 203 203 207 209 202 203 204 210 207 206 206 208 216 218 220 226 226 229 229 233 237 237 242 282 296
196 197 198 200 200 203 205 205 206 207 213 212 209 208 205 206 202 206 207 211 215 220 224 225 228 232 236 241 240 240 255 298
190 192 196 198 201 204 208 207 207 208 213 216 216 212 208 209 205 208 205 208 212 220 223 226 229 232 235 241 248 254 255 281
189 194 196 198 201 208 214 209 207 208 212 216 218 217 212 213 212 211 211 212 216 219 226 227 230 232 234 240 245 254 258 271
187 192 196 198 201 212 218 212 208 210 212 214 217 220 213 211 210 211 214 213 213 221 227 226 226 230 233 240 248 251 256 269
185 190 195 197 202 209 217 218 213 211 213 214 215 219 220 213 210 215 213 213 212 222 226 223 223 226 228 238 244 246 251 261
178 184 192 196 200 205 214 216 212 210 215 215 215 217 220 217 214 220 220 217 220 227 227 224 223 222 226 232 244 245 248 255
172 182 190 201 208 208 209 211 214 215 217 218 218 219 219 220 219 223 223 220 225 229 227 227 225 225 231 231 244 246 251 253
169 188 200 206 209 209 205 209 213 214 213 217 219 220 222 223 222 225 224 223 226 228 229 229 228 231 238 236 239 242 246 249
182 190 205 208 208 210 207 208 210 212 214 218 222 224 225 225 225 226 225 226 227 228 230 231 231 234 239 237 237 242 244 248
193 193 205 211 212 214 214 214 215 214 215 218 223 226 225 223 223 225 225 227 228 229 231 231 232 235 236 243 244 242 243 246
204 212 222 216 218 218 221 219 220 218 220 220 219 221 223 223 223 223 223 227 229 230 228 231 234 237 238 246 249 244 244 246
203 230 237 232 229 223 220 218 220 224 223 219 216 216 221 219 220 219 221 225 226 231 229 231 236 238 240 245 249 242 244 246
185 230 240 241 243 236 220 213 214 215 212 212 212 214 216 217 217 219 220 222 227 231 233 233 237 238 240 241 247 242 242 242
Wind_Speed_850mb
39 43 43 41 40 39 39 41 46 50 44 36 32 34 33 31 29 27 32 30 26 20 14 10 7 4 2 0 4 7 7 7
41 43 45 44 43 43 43 44 49 52 44 40 37 36 35 33 31 32 33 30 27 23 18 13 11 7 6 4 5 7 11 10
46 46 49 48 47 48 47 45 50 53 44 41 36 32 34 33 32 36 36 32 28 26 21 16 14 11 7 6 6 4 9 12
52 52 52 51 52 53 53 50 49 53 48 43 37 35 29 34 35 35 39 36 32 31 26 21 17 14 11 9 7 5 4 14
50 55 54 55 56 54 55 54 53 52 54 49 48 44 42 38 36 34 34 39 38 35 31 27 21 19 16 12 9 7 4 6
55 57 57 55 53 54 57 58 58 57 58 54 52 48 42 36 36 36 38 39 41 40 37 32 28 23 21 18 13 10 7 7
50 49 51 53 53 53 56 61 63 63 63 61 58 54 47 45 41 41 38 36 39 44 42 39 33 31 26 21 16 14 10 12
51 54 56 55 58 55 56 61 66 67 70 66 65 58 54 51 46 45 42 41 41 46 48 45 40 35 30 25 22 19 15 14
49 53 54 55 56 56 56 61 63 66 71 72 65 60 53 53 52 45 45 43 42 43 46 47 44 39 34 30 26 24 21 18
45 47 49 51 54 57 56 60 60 63 69 72 70 66 61 55 52 52 46 45 41 46 44 48 44 42 37 31 32 29 27 22
39 41 43 45 47 49 54 56 59 60 62 68 69 69 65 57 54 55 53 49 48 50 47 48 45 42 35 36 39 35 30 25
37 36 37 38 37 42 48 56 54 54 59 62 65 65 67 64 58 60 60 56 57 56 52 50 49 47 45 37 40 36 34 29
27 28 31 32 34 38 45 50 55 55 56 59 64 65 64 67 66 64 62 63 65 62 58 58 56 54 49 42 43 41 38 34
17 21 26 30 33 36 40 44 49 51 52 55 61 65 68 70 71 70 66 66 68 68 68 68 64 62 53 52 47 48 43 40
15 15 23 27 31 35 36 38 41 46 52 55 60 65 68 69 72 74 70 68 72 75 75 72 72 69 60 58 58 56 51 43
16 14 14 22 28 32 35 35 35 40 46 52 57 59 64 64 66 71 72 73 73 76 78 76 77 77 68 64 63 62 57 50
12 13 15 14 23 30 34 36 38 39 43 47 49 53 57 63 64 65 67 73 73 75 78 81 83 81 72 65 64 64 63 55
11 11 12 14 15 22 32 35 37 39 41 42 45 47 50 54 56 59 63 68 73 77 74 80 87 82 74 68 65 71 65 60
8 6 6 8 11 15 21 27 32 35 35 36 39 41 44 46 51 56 59 62 71 73 77 81 84 80 74 77 69 70 69 62
Wind_Direction_850mb
182 182 183 182 186 189 191 187 188 186 186 184 186 192 196 197 195 191 196 197 199 202 200 213 228 262 248 32 25 19 40 69
185 184 185 185 190 187 193 191 192 190 189 189 193 195 196 199 200 199 203 206 212 212 205 219 224 233 240 313 344 1 8 15
186 187 189 190 192 193 197 197 197 194 192 194 196 198 204 200 198 205 208 213 218 214 214 215 217 239 242 287 304 337 347 354
190 189 191 193 197 197 199 199 201 197 192 193 194 195 196 199 202 205 210 213 214 214 221 220 226 228 234 258 284 313 280 340
195 194 194 197 200 200 201 200 203 205 199 197 200 200 203 207 207 204 207 213 215 216 223 227 230 224 230 239 253 260 296 292
195 197 200 200 198 201 202 203 203 207 209 202 203 204 210 207 206 206 208 216 218 220 226 226 229 229 233 237 237 242 282 296
196 197 198 200 200 203 205 205 206 207 213 212 209 208 205 206 202 206 207 211 215 220 224 225 228 232 236 241 240 240 255 298
190 192 196 198 201 204 208 207 207 208 213 216 216 212 208 209 205 208 205 208 212 220 223 226 229 232 235 241 248 254 255 281
189 194 196 198 201 208 214 209 207 208 212 216 218 217 212 213 212 211 211 212 216 219 226 227 230 232 234 240 245 254 258 271
187 192 196 198 201 212 218 212 208 210 212 214 217 220 213 211 210 211 214 213 213 221 227 226 226 230 233 240 248 251 256 269
185 190 195 197 202 209 217 218 213 211 213 214 215 219 220 213 210 215 213 213 212 222 226 223 223 226 228 238 244 246 251 261
178 184 192 196 200 205 214 216 212 210 215 215 215 217 220 217 214 220 220 217 220 227 227 224 223 222 226 232 244 245 248 255
172 182 190 201 208 208 209 211 214 215 217 218 218 219 219 220 219 223 223 220 225 229 227 227 225 225 231 231 244 246 251 253
169 188 200 206 209 209 205 209 213 214 213 217 219 220 222 223 222 225 224 223 226 228 229 229 228 231 238 236 239 242 246 249
182 190 205 208 208 210 207 208 210 212 214 218 222 224 225 225 225 226 225 226 227 228 230 231 231 234 239 237 237 242 244 248
193 193 205 211 212 214 214 214 215 214 215 218 223 226 225 223 223 225 225 227 228 229 231 231 232 235 236 243 244 242 243 246
204 212 222 216 218 218 221 219 220 218 220 220 219 221 223 223 223 223 223 227 229 230 228 231 234 237 238 246 249 244 244 246
203 230 237 232 229 223 220 218 220 224 223 219 216 216 221 219 220 219 221 225 226 231 229 231 236 238 240 245 249 242 244 246
185 230 240 241 243 236 220 213 214 215 212 212 212 214 216 217 217 219 220 222 227 231 233 233 237 238 240 241 247 242 242 242